Regional Weather Roundup
Issued by NWS Upton, NY

Current Version | Previous Version | Text Only | Print | Product List | Glossary On
Versions: 1 2 3 4 5 6 7 8 9 10 11 12 13 14 15 16 17 18 19 20 21 22 23 24 25 26 27 28 29 30 31 32 33 34 35 36 37 38 39 40 41 42 43 44 45 46 47 48 49 50
685
ASUS41 KOKX 131104
RWROKX

REGIONAL WEATHER ROUNDUP
NATIONAL WEATHER SERVICE NEW YORK NY
600 AM EST SAT FEB 13 2016

NOTE: "FAIR" INDICATES FEW OR NO CLOUDS BELOW 12,000 FEET WITH NO
SIGNIFICANT WEATHER AND/OR OBSTRUCTIONS TO VISIBILITY.

NYZ071-072-176-178-NJZ106-104-131200-
NEW YORK CITY METRO AREA


CITY           SKY/WX    TMP DP  RH WIND       PRES   REMARKS
CENTRAL PARK   CLEAR     21  11  65 W8        29.91R WCI  11
LAGUARDIA APRT PTCLDY    22  12  65 W17G23    29.90R WCI   8
KENNEDY INTL   PTCLDY    23  12  62 W14       29.91R WCI  11
NEWARK/LIBERTY PTCLDY    21  13  71 W15       29.91R WCI   8
BRNX BOT. GARD   N/A     21  14  73 W9        29.92R WCI  11
TETERBORO      CLEAR     20  11  68 W9        29.90R WCI   9
$$

NYZ177-179-078>081-131200-
LONG ISLAND NEW YORK

CITY           SKY/WX    TMP DP  RH WIND       PRES   REMARKS
FARMINGDALE    CLEAR     21  11  65 NW12      29.88R WCI   9
ISLIP          PTCLDY    18  10  71 W5        29.87R WCI  11
SHIRLEY        MOCLDY    19  11  70 W5        29.88R WCI  12
RIVERHEAD        N/A     25  10  54 W8        29.83S WCI  16
WESTHAMPTON    MOCLDY    15   9  76 W7        29.88R WCI   5
EAST HAMPTON   CLOUDY    22  12  64 NW10      29.84R WCI  11
MONTAUK POINT    N/A     22  13  68 NW14G20   29.85R WCI   9
$$

NYZ052-065-067-131200-
HUDSON VALLEY

CITY           SKY/WX    TMP DP  RH WIND       PRES   REMARKS
WHITE PLAINS   PTCLDY    19  11  70 W14G21    29.85R WCI   6
NEWBURGH       PTCLDY    14  10  85 W6        29.87R WCI   5
MONTGOMERY     CLEAR     18   9  68 NW9       29.86R WCI   7
POUGHKEEPSIE   MOCLDY    19  12  74 CALM      29.87R
ALBANY         MOCLDY    17   6  62 NW9       29.87R WCI   6
$$

NJZ001-105-106-008-010-013-015-019>022-104-131200-
NEW JERSEY

CITY           SKY/WX    TMP DP  RH WIND       PRES   REMARKS
NEWARK/LIBERTY PTCLDY    21  13  71 W15       29.91R WCI   8
TETERBORO      CLEAR     20  11  68 W9        29.90R WCI   9
CALDWELL       CLEAR     20  11  68 W10       29.91R WCI   9
MORRISTOWN     CLEAR     19  10  68 W8        29.90R WCI   9
SOMERVILLE     CLEAR     20  12  71 W8        29.92R WCI  10
SUSSEX         MIX PCPN  18   8  65 NW12G20   29.89R WCI   5
ANDOVER          N/A     18   9  68 N8        29.90R WCI   8
TRENTON        CLEAR     20  12  71 NW10      29.95R WCI   9
MILLVILLE      CLEAR     22  13  68 W15G24    30.00R WCI   9
ATLANTIC CITY  CLEAR     21  14  74 W9        29.98R WCI  11
WRIGHTSTOWN    CLEAR     20  17  85 NW14G21   29.93R WCI   7
TOMS RIVER     CLEAR     18  12  79 W8        29.95R WCI   7
BELMAR         CLEAR     19   9  63 W12       29.91R WCI   7
$$

PAZ047>061-062-071-131200-
EASTERN PENNSYLVANIA

CITY           SKY/WX    TMP DP  RH WIND       PRES   REMARKS
PHILADELPHIA   PTCLDY    22   8  55 W18G26    30.01R WCI   7
ALLENTOWN      CLOUDY    20  10  65 NW14      29.95R WCI   7
SCRANTON       PTCLDY    14   5  67 NW14G24   29.92R WCI  -1
$$

CTZ002-004>006-009-010-012-RIZ004-006-007-MAZ004-011-015-131200-
SOUTHERN NEW ENGLAND
 IN CT

CITY           SKY/WX    TMP DP  RH WIND       PRES   REMARKS
BRADLEY INTL   PTCLDY    12   7  80 CALM      29.83R
HARTFORD       PTCLDY    18   9  68 CALM      29.86R
DANBURY        PTCLDY    16   8  71 SW5       29.85R WCI   9
WTRBRY/OXFORD  CLEAR     16   1  53 W6        29.81R WCI   7
BRIDGEPORT     CLEAR     20  12  71 W8        29.87R WCI  10
MERIDEN        PTCLDY    14   7  73 CALM      29.85R
NEW HAVEN      CLOUDY    20  11  68 NW6       29.86R WCI  12
CHESTER        FAIR      19  14  79 CALM      29.82S
GROTON         LGT SNOW  19  16  88 NW9       29.85R FOG     WCI   8
WILLIMANTIC    LGT SNOW  14   9  80 CALM      29.83S

 IN RI

CITY           SKY/WX    TMP DP  RH WIND       PRES   REMARKS
PROVIDENCE     CLOUDY    18  10  71 W5        29.82S WCI  11
BLOCK ISLAND   CLOUDY    21  14  73 NW9       29.81R WCI  11
WESTERLY       LGT SNOW  19  11  70 NW8       29.84R WCI   9

 IN MA

CITY           SKY/WX    TMP DP  RH WIND       PRES   REMARKS
BOSTON         MOCLDY    20   7  57 W9        29.81S WCI   9
WORCESTER      MOCLDY    11   5  77 W10       29.73S WCI  -3
WESTFIELD      PTCLDY     5   2  87 S3        29.83R
PROVINCETOWN   LGT SNOW  22  18  85 NW13      29.79F FOG     WCI  10
NANTUCKET      CLOUDY    23  16  74 NW13      29.79S WCI  11
$$

ANZ330-335-338-340-345-350-353-355-131200-
COASTAL MARINE OBSERVATIONS


STATION/POSITION TIME  SKY/WX   TEMP    WIND        PRES    VSBY  WAVE
                                AIR SEA DIR/SP/G                  HT/PER
                 (UTC)          (F)     (DEG/KT/KT) (MB)    (MI)  (FT/S)
NY HARB ENTRANCE 0950            25 43  280/ 21/ 27 1011.5          3/ 3
4S FIRE IS       NOT AVBL
20S FIRE ISLAND  0950            26 41  300/ 21/ 25 1011.3          5/ 5
GREAT SOUTH BAY  NOT AVBL
23SW MTP         1050            26 44  290/ 19/ 25 1010.0          4/ 5
HUDSON CANYON    0950            29 48              1010.9          8/ 6
KINGS POINT      1000            22 36  330/ 10/ 15 1011.3
EXECUTION ROCKS  NOT AVBL
CENTRAL LI SOUND 1000            24     290/ 19/ 25   N/A           3/ 4
EASTERN LI SOUND 1000            25 41  290/ 16/ 21   N/A
ROBBINS REEF     1000            21     280/ 16/ 19 1011.1
$$


>>>>>>>>>>>>>>>>>>>>>>>>>>>> KEY <<<<<<<<<<<<<<<<<<<<<<<<<<<
>                                                          <
>     SKY/WX - SKY CONDITION/PRESENT WEATHER               <
>     TMP    - TEMPERATURE IN FAHRENHEIT                   <
>     DP     - DEWPOINT IN FAHRENHEIT                      <
>     RH     - RELATIVE HUMIDITY IN PERCENT                <
>     WIND   - DIRECTION AND SPEED IN MPH                  <
>     PRES   - MEAN SEA LEVEL PRESSURE IN INCHES OF HG     <
>     WCI    - WIND CHILL INDEX                            <
>     VSB    - VISIBILITY IN MILES                         <
>     HX     - HEAT INDEX                                  <
>     TC     - TEMPERATURE IN CELSIUS                      <
>     VRB    - VARIABLE WIND DIRECTION                     <
>                                                          <
>>>>>>>>>>>>>>>>>>>>>>>>>>>> KEY <<<<<<<<<<<<<<<<<<<<<<<<<<<






USA.gov is the U.S. government's official web portal to all federal, state and local government web resources and services.